Weather History for KMTJ - June, 2014

Change the Weather History Date:

Wednesday, June 18, 2014

  Actual Average Record
Temperature  
Mean Temperature 63 °F 69 °F  
Max Temperature 80 °F 86 °F 96 °F (2002)
Min Temperature 45 °F 52 °F 44 °F (1998)
Degree Days  
Heating Degree Days 2 1  
Month to date heating degree days 16 36  
Since 1 June heating degree days 16 36  
Since 1 July heating degree days 6135 6200  
Cooling Degree Days 0 5  
Month to date cooling degree days 65 61  
Year to date cooling degree days 106 78  
Since 1 June cooling degree days 65 61  
Growing Degree Days 12 (Base 50)    
Moisture  
Dew Point 28 °F    
Average Humidity 31    
Maximum Humidity 50    
Minimum Humidity 12    
Precipitation  
Precipitation 0.00 in 0.03 in 0.05 in (2000)
Month to date precipitation T 0.41  
Year to date precipitation 3.27 4.71  
Sea Level Pressure  
Sea Level Pressure 29.83 in    
Wind  
Wind Speed 9 mph (NW)    
Max Wind Speed 26 mph    
Max Gust Speed 36 mph    
Visibility 10 miles    
Events      
T = Trace of Precipitation, MM = Missing Value Source: NWS Daily Summary

Daily Weather History Graph

Daily Weather History Graph

Search for Another Location

Airport or City:

Trip Planner

Search our weather history database for the weather conditions in past years. The results will help you decide how hot, cold, wet, or windy it might be!

Date:

Astronomy

Jun. 18, 2014 Rise Set
Actual Time 5:47 AM MDT 8:38 PM MDT
Civil Twilight 5:15 AM MDT 9:10 PM MDT
Nautical Twilight 4:35 AM MDT 9:50 PM MDT
Astronomical Twilight 3:49 AM MDT 10:36 PM MDT
Moon 12:12 AM MDT (6/18) 12:09 PM MDT (6/18)
Length of Visible Light 15h 54m
Length of Day
14h 51m
Waning Gibbous, 62% of the Moon is Illuminated
Jun 18
Waning Gibbous
Jun 19
Last Quarter
Jun 27
New
Jul 5
First Quarter
Jul 12
Full

Hourly Weather History & Observations

Time (MDT) Temp. Windchill Dew Point Humidity Pressure Visibility Wind Dir Wind Speed Gust Speed Precip Events Conditions
12:17 AM 62.1 °F - 28.0 °F 28% 29.95 in 10.0 mi NW 13.8 mph 29.9 mph N/A   Clear
12:53 AM 57.9 °F - 28.9 °F 33% 29.73 in 10.0 mi North 12.7 mph - N/A   Clear
1:53 AM 55.9 °F - 28.0 °F 34% 29.77 in 10.0 mi NW 8.1 mph - N/A   Partly Cloudy
2:53 AM 54.0 °F - 26.1 °F 34% 29.77 in 10.0 mi NE 8.1 mph - N/A   Clear
3:53 AM 52.0 °F - 26.1 °F 37% 29.79 in 10.0 mi Calm Calm - N/A   Clear
4:53 AM 48.0 °F - 28.9 °F 48% 29.79 in 10.0 mi South 3.5 mph - N/A   Clear
5:53 AM 46.0 °F 43.9 °F 28.9 °F 51% 29.83 in 10.0 mi SE 4.6 mph - N/A   Clear
6:53 AM 48.9 °F - 30.0 °F 48% 29.83 in 10.0 mi NE 3.5 mph - N/A   Clear
7:53 AM 53.1 °F - 28.9 °F 40% 29.83 in 10.0 mi Calm Calm - N/A   Clear
8:53 AM 57.0 °F - 28.9 °F 34% 29.84 in 10.0 mi North 5.8 mph - N/A   Clear
9:53 AM 61.0 °F - 28.9 °F 30% 29.83 in 10.0 mi North 5.8 mph - N/A   Clear
10:53 AM 64.0 °F - 30.0 °F 28% 29.80 in 10.0 mi NNW 9.2 mph - N/A   Clear
11:53 AM 69.1 °F - 30.9 °F 24% 29.77 in 10.0 mi NNW 8.1 mph - N/A   Scattered Clouds
12:53 PM 71.1 °F - 30.9 °F 23% 29.78 in 10.0 mi NNW 9.2 mph - N/A   Partly Cloudy
1:53 PM 75.0 °F - 32.0 °F 21% 29.77 in 10.0 mi NW 20.7 mph 28.8 mph N/A   Scattered Clouds
2:00 PM 73.9 °F - 30.9 °F 21% 29.98 in 10.0 mi NNW 16.1 mph 28.8 mph N/A   Scattered Clouds
2:53 PM 72.0 °F - 30.9 °F 22% 29.81 in 10.0 mi SSW 13.8 mph - N/A   Scattered Clouds
3:53 PM 75.9 °F - 25.0 °F 15% 29.78 in 10.0 mi SW 16.1 mph 29.9 mph N/A   Clear
4:24 PM 79.0 °F - 21.0 °F 12% 29.98 in 8.0 mi WSW 16.1 mph 36.8 mph N/A   Partly Cloudy
4:53 PM 79.0 °F - 23.0 °F 13% 29.78 in 10.0 mi WSW 20.7 mph 33.4 mph N/A   Partly Cloudy
5:53 PM 78.1 °F - 21.9 °F 12% 29.78 in 10.0 mi WSW 12.7 mph - N/A   Partly Cloudy
6:20 PM 77.0 °F - 27.0 °F 16% 29.97 in 10.0 mi NW 15.0 mph 23.0 mph N/A   Partly Cloudy
6:53 PM 73.9 °F - 28.0 °F 18% 29.79 in 10.0 mi NNW 13.8 mph - N/A   Clear
7:53 PM 71.1 °F - 30.9 °F 23% 29.80 in 10.0 mi NNW 6.9 mph - N/A   Clear
8:53 PM 66.0 °F - 34.0 °F 30% 29.83 in 10.0 mi West 5.8 mph - N/A   Clear
9:53 PM 63.0 °F - 27.0 °F 26% 29.86 in 10.0 mi West 8.1 mph - N/A   Clear
10:53 PM 57.0 °F - 30.0 °F 36% 29.89 in 10.0 mi SE 5.8 mph - N/A   Clear
11:53 PM 53.1 °F - 30.9 °F 43% 29.91 in 10.0 mi ESE 8.1 mph - N/A   Clear